Погода в Егоровке

Россия / Новосибирская область     55°37′15″N   84°13′01″E
темп.,
°C
ветер,
м/с
пор.,
м/с
влажн.,
%
обл.,
%
осадки,
мм/ч
давл.,
гПа
погр.,
м
25 февраля, чт
чт2501:00−10ююз51595100 4.1 1009688
04:00−19зюз7158267 0.1 1012511
07:00−24юз4109533 0.1 1015154
10:00−22юз6139196 0.0 1017614
13:00−19юз8127754 0.0 10181095
16:00−19юз8128699 0.1 10181431
19:00−21юз6128899 0.1 10211164
22:00−21юз41096100 0.1 1020804
26 февраля, пт
пт2601:00−21юз61193100 0.1 10211199
04:00−22юз61191100 0.1 1021835
07:00−22юз61192100 0.2 1024844
10:00−23юз81290100 0.1 1025964
13:00−23юз91292100 0.2 10271002
16:00−23зюз81290100 0.2 1030989
19:00−25зюз61291100 0.3 1032769
22:00−27зюз61393100 0.0 1034590
27 февраля, сб
сб2701:00−26зюз61192100 0.1 1035598
04:00−26юз5994100 0.0 1035538
07:00−26юз51095100 0.1 1036508
10:00−25юз5994100 0.1 1037544
13:00−24юз5892100 0.2 1037585
16:00−23юз5891100 0.1 1037596
19:00−24юз3795100 0.1 1037229
22:00−27юз349738 0.0 103966
28 февраля, вс
вс2801:00−28юз339938 0.0 103953
04:00−29ююз339879 0.0 104031
07:00−30ю339640 0.0 104031
10:00−27ю35940 0.0 1040144
13:00−21ююв34903 0.0 1039285
16:00−18юв469046 0.0 1036364
19:00−20юв489668 0.0 1034141
22:00−17юв51092100 0.0 1032219
1 марта, пн
пн101:00−14юв61294100 0.1 1028355
04:00−11ююв61194100 0.6 1024508
07:00−9ююв61195100 1.7 1020756
10:00−8ю71294100 1.2 1017732
13:00−6ююз71194100 2.5 1014771
16:00−3ююз81495100 2.1 1012889
19:00−1юз81596100 2.9 1011797
22:00−1зюз71496100 1.2 1011809